Home > Weather > Nouadhibou > Past weeks

Flag for Mauritania Past Weather in Nouadhibou, Mauritania — Yesterday and Last 2 Weeks

Now
72 °F

Fog.


Feels Like: 69 °F
Forecast: 70 / 80 °F
Wind: 2 mph from Southwest

Location: Nouadhibou Airport

Current Time: Jul 30, 2016 at 7:21:59 AM

Latest Report: Jul 30, 2016 at 7:00 AM


Visibility: 2 mi

Pressure: 29.89 "Hg

Humidity: 88%

Dew Point: 68 °F

Location of NouadhibouLocation

Past Weather in Nouadhibou — Graph

°F

Nouadhibou Temperature Yesterday

Maximum temperature yesterday: 81 °F (at 12:00 PM)
Minimum temperature yesterday: 70 °F (at 4:00 AM)
Average temperature yesterday: 74 °F

High & Low Weather Summary for the Past Weeks

 TemperatureHumidityPressure
High91 °F (Jul 26, 1:00 PM)100% (Jul 21, 3:00 AM)29.98 "Hg (Jul 21, 3:00 AM)
Low66 °F (Jul 21, 3:00 AM)48% (Jul 17, 11:00 AM)29.74 "Hg (Jul 17, 5:00 PM)
Average73 °F80%29.85 "Hg
* Reported Jul 15 6:00 AM — Jul 30 6:00 AM, Nouadhibou, Weather by CustomWeather, © 2016

Note: Actual official high and low records may vary slightly from our data, if they occured in-between our weather recording intervals... More about our weather records

Advertising

Nouadhibou Weather History for the Previous 24 Hours

Scroll right to see more
 ConditionsComfort  
Time TempWeatherWind HumidityBarometerVisibility
6:00 AM
Sat, Jul 30
72 °FSandstorm.3 mph83%29.89 "Hg4 mi
5:00 AM72 °FSandstorm.3 mph83%29.89 "Hg4 mi
4:00 AM72 °FSandstorm.5 mph83%29.89 "Hg4 mi
3:00 AM72 °FSandstorm.5 mph83%29.89 "Hg4 mi
2:00 AM72 °FSandstorm.6 mph83%29.89 "Hg4 mi
1:00 AM72 °FSandstorm.7 mph83%29.92 "Hg4 mi
12:00 AM72 °FSandstorm.7 mph83%29.92 "Hg4 mi
11:00 PM
Fri, Jul 29
72 °FSandstorm.6 mph83%29.92 "Hg4 mi
10:00 PM72 °FSandstorm.5 mph83%29.89 "Hg4 mi
9:00 PM72 °FSandstorm.5 mph78%29.89 "Hg4 mi
8:00 PM73 °FSandstorm.6 mph74%29.89 "Hg4 mi
7:00 PM75 °FSandstorm.6 mph69%29.86 "Hg4 mi
6:00 PM75 °FSandstorm.5 mph74%29.86 "Hg4 mi
5:00 PM77 °FSandstorm.6 mph69%29.83 "Hg4 mi
4:00 PM77 °FSandstorm.6 mph69%29.86 "Hg4 mi
3:00 PM77 °FSandstorm.6 mph69%29.83 "Hg4 mi
2:00 PM79 °FSandstorm.6 mph65%29.86 "Hg4 mi
1:00 PM81 °FSandstorm.7 mph62%29.86 "Hg4 mi
12:00 PM81 °FSandstorm.5 mph62%29.86 "Hg4 mi
11:00 AM79 °FSandstorm.8 mph65%29.86 "Hg4 mi
10:00 AM77 °FSandstorm.10 mph69%29.83 "Hg4 mi
9:00 AM73 °FSandstorm.9 mph78%29.86 "Hg4 mi
8:00 AM70 °FClear.6 mph83%29.83 "Hg4 mi
7:00 AM70 °FPassing clouds.3 mph83%29.83 "Hg4 mi
Weather by CustomWeather, © 2016

See weather overviewHow to use our weather pages